User: anonymous   Login
Location: Hartman Creek State Park
(44.3257°N, 89.2134°W)
Time: 23:03:55
(UTC-05:00)
Language:

BREEZE-M DEB (TANK) - Orbit

View from above orbital plane
View from above orbital plane
View from above satellite
View from above satellite

Ground track
Ground track

The orbit data is extracted from the following two-line orbital elements,

1 29649U 06056B   16119.40226692  .00003097  00000-0  44205-3 0  9993
2 29649  49.4503 177.0196 5398977 262.6121  36.0873  4.98268194167064
Epoch (UTC): 28 April 2016 09:39:15
Eccentricity: 0.5398977
inclination: 49.4503°
perigee height: 284 km
apogee height: 15919 km
right ascension of ascending node: 177.0196°
argument of perigee: 262.6121°
revolutions per day: 4.98268194
mean anomaly at epoch: 36.0873°
orbit number at epoch: 16706

The dashed part of the orbit path shows where the satellite is in the earth's shadow,  

DLR